Weather History for KEST - March, 2012

Change the Weather History Date:

Wednesday, March 14, 2012

  Actual Average Record
Temperature  
Mean Temperature 57 °F 32 °F  
Max Temperature 72 °F 40 °F 72 °F (2012)
Min Temperature 42 °F 23 °F -10 °F (1960)
Degree Days  
Heating Degree Days 8 33  
Month to date heating degree days 382 508  
Since 1 July heating degree days 5475 6423  
Cooling Degree Days 0 0  
Month to date cooling degree days 0 0  
Year to date cooling degree days 0 0  
Growing Degree Days 8 (Base 50)    
Moisture  
Dew Point 46 °F    
Average Humidity 66    
Maximum Humidity 93    
Minimum Humidity 38    
Precipitation  
Precipitation 0.00 in 0.06 in 1.29 in (1990)
Month to date precipitation 0.36 0.46  
Year to date precipitation 2.28  
Sea Level Pressure  
Sea Level Pressure 29.81 in    
Wind  
Wind Speed 10 mph (West)    
Max Wind Speed 18 mph    
Max Gust Speed 23 mph    
Visibility 10 miles    
Events      
T = Trace of Precipitation, MM = Missing Value Source: NWS Daily Summary

Daily Weather History Graph

Daily Weather History Graph

Search for Another Location

Airport or City:

Trip Planner

Search our weather history database for the weather conditions in past years. The results will help you decide how hot, cold, wet, or windy it might be!

Date:

Astronomy

Mar. 14, 2012 Rise Set
Actual Time 7:31 AM CDT 7:24 PM CDT
Civil Twilight 7:03 AM CDT 7:53 PM CDT
Nautical Twilight 6:30 AM CDT 8:26 PM CDT
Astronomical Twilight 5:56 AM CDT 9:00 PM CDT
Moon 2:12 AM CDT (3/14) 11:32 AM CDT (3/14)
Length of Visible Light 12h 49m
Length of Day
11h 52m
Waning Gibbous, 54% of the Moon is Illuminated
Mar 14
Waning Gibbous
Mar 14
Last Quarter
Mar 22
New
Mar 30
First Quarter
Apr 6
Full

Hourly Weather History & Observations

Time (CDT) Temp. Windchill Dew Point Humidity Pressure Visibility Wind Dir Wind Speed Gust Speed Precip Events Conditions
12:52 AM 51.1 °F - 45.0 °F 80% 29.78 in 10.0 mi South 9.2 mph - N/A   Clear
1:52 AM 51.1 °F - 46.0 °F 83% 29.76 in 10.0 mi South 12.7 mph - N/A   Clear
3:52 AM 48.9 °F - 45.0 °F 86% 29.72 in 10.0 mi South 12.7 mph - N/A   Clear
4:52 AM 46.9 °F - 44.1 °F 90% 29.70 in 10.0 mi South 11.5 mph - N/A   Clear
5:52 AM 46.9 °F - 44.1 °F 90% 29.72 in 5.0 mi South 12.7 mph - N/A   Clear
6:52 AM 50.0 °F - 46.0 °F 86% 29.72 in 10.0 mi SSW 15.0 mph - N/A   Clear
7:52 AM 50.0 °F - 46.0 °F 86% 29.74 in 8.0 mi South 12.7 mph - N/A   Clear
8:52 AM 55.0 °F - 50.0 °F 83% 29.76 in 10.0 mi SW 15.0 mph 20.7 mph N/A   Clear
9:52 AM 59.0 °F - 51.1 °F 75% 29.78 in 10.0 mi WSW 13.8 mph - N/A   Clear
10:52 AM 63.0 °F - 48.0 °F 58% 29.81 in 10.0 mi West 13.8 mph - N/A   Clear
11:52 AM 64.9 °F - 48.0 °F 54% 29.81 in 10.0 mi NW 10.4 mph - N/A   Clear
12:52 PM 66.9 °F - 46.9 °F 49% 29.81 in 10.0 mi Variable 5.8 mph - N/A   Clear
1:52 PM 68.0 °F - 46.0 °F 45% 29.81 in 10.0 mi SW 3.5 mph - N/A   Clear
2:52 PM 70.0 °F - 46.9 °F 44% 29.79 in 10.0 mi NW 4.6 mph - N/A   Clear
3:52 PM 72.0 °F - 46.0 °F 40% 29.81 in 10.0 mi North 6.9 mph - N/A   Clear
4:52 PM 71.1 °F - 45.0 °F 39% 29.83 in 10.0 mi North 9.2 mph - N/A   Clear
5:52 PM 69.1 °F - 45.0 °F 42% 29.84 in 10.0 mi NNW 10.4 mph - N/A   Clear
6:52 PM 64.0 °F - 48.9 °F 58% 29.85 in 10.0 mi North 6.9 mph - N/A   Clear
7:52 PM 57.0 °F - 48.9 °F 74% 29.88 in 10.0 mi NNW 9.2 mph - N/A   Clear
8:52 PM 53.1 °F - 46.0 °F 77% 29.91 in 10.0 mi NNW 10.4 mph - N/A   Clear
9:52 PM 48.9 °F - 42.1 °F 77% 29.92 in 10.0 mi NNW 9.2 mph - N/A   Clear
10:52 PM 44.1 °F 40.8 °F 39.0 °F 82% 29.92 in 10.0 mi NW 5.8 mph - N/A   Clear
11:52 PM 44.1 °F 40.1 °F 37.9 °F 79% 29.92 in 10.0 mi NW 6.9 mph - N/A   Clear